Location: Waco, TX
(31.5480°N, 97.1670°W)
Time: 19:40:33
(UTC-06:00)

ISS - Pass Details

Date: 04 January 2018
Orbit: 402 x 407 km, 51.6° (Epoch: 23 January)

Event Time Altitude Azimuth Distance (km) Brightness Sun altitude
Rises 10:49:57 0° 319° (NW) 2,330 -0.5 30.4°
Reaches altitude 10° 10:52:03 10° 323° (NW) 1,467 -1.4 30.6°
Maximum altitude 10:55:18 57° 44° (NE) 485 -3.2 30.9°
Drops below altitude 10° 10:58:32 10° 123° (ESE) 1,461 0.0 31.2°
Sets 11:00:38 0° 128° (SE) 2,318 0.9 31.4°
